Time,TemperatureF,DewpointF,PressureIn,WindDirection,WindDirectionDegrees,WindSpeedMPH,WindSpeedGustMPH,Humidity,HourlyPrecipIn,Conditions,Clouds,dailyrainin,SoftwareType,DateUTC
2013-03-06 00:00:00,43.5,38.4,29.57,NNE,22,0.0,0.0,82,0.00,CLR,SCT,0.00,WeatherDisplay:10.37,2013-03-06 00:00:00,
2013-03-06 00:15:00,43.5,38.4,29.57,NNE,22,0.0,0.0,82,0.00,CLR,SCT,0.00,WeatherDisplay:10.37,2013-03-06 00:15:00,
2013-03-06 00:20:00,43.5,38.4,29.57,NNE,22,0.0,0.0,82,0.00,CLR,SCT,0.00,WeatherDisplay:10.37,2013-03-06 00:20:00,
2013-03-06 00:30:00,43.3,37.8,29.57,NNE,22,0.0,0.0,81,0.00,CLR,SCT,0.00,WeatherDisplay:10.37,2013-03-06 00:30:00,
2013-03-06 00:40:00,42.9,37.4,29.55,NNE,22,0.0,0.0,81,0.00,CLR,SCT,0.00,WeatherDisplay:10.37,2013-03-06 00:40:00,
2013-03-06 00:50:00,42.4,37.3,29.55,NNE,22,0.0,0.0,82,0.00,CLR,SCT,0.00,WeatherDisplay:10.37,2013-03-06 00:50:00,
2013-03-06 00:55:00,42.1,37.0,29.56,NNE,22,0.0,0.0,82,0.00,CLR,SCT,0.00,WeatherDisplay:10.37,2013-03-06 00:55:00,
2013-03-06 01:00:00,41.8,36.7,29.55,NNE,22,0.0,0.0,82,0.00,CLR,SCT,0.00,WeatherDisplay:10.37,2013-03-06 01:00:00,
2013-03-06 01:05:00,41.5,36.5,29.55,NNE,22,0.0,0.0,82,0.00,CLR,SCT,0.00,WeatherDisplay:10.37,2013-03-06 01:05:00,
2013-03-06 01:10:00,41.4,36.6,29.55,NNE,22,0.0,0.0,83,0.00,CLR,SCT,0.00,WeatherDisplay:10.37,2013-03-06 01:10:00,
2013-03-06 01:15:00,41.2,36.4,29.55,NNE,22,0.0,0.0,83,0.00,CLR,SCT,0.00,WeatherDisplay:10.37,2013-03-06 01:15:00,
2013-03-06 01:20:00,41.0,36.2,29.55,NNE,22,0.0,0.0,83,0.00,CLR,SCT,0.00,WeatherDisplay:10.37,2013-03-06 01:20:00,
2013-03-06 01:25:00,40.8,36.1,29.55,NNE,22,0.0,0.0,83,0.00,CLR,SCT,0.00,WeatherDisplay:10.37,2013-03-06 01:25:00,
2013-03-06 01:30:00,40.5,35.7,29.55,NNE,22,0.0,0.0,83,0.00,CLR,SCT,0.00,WeatherDisplay:10.37,2013-03-06 01:30:00,
2013-03-06 01:35:00,40.1,35.4,29.55,NNE,22,0.0,0.0,83,0.00,CLR,SCT,0.00,WeatherDisplay:10.37,2013-03-06 01:35:00,
2013-03-06 01:40:00,39.9,35.2,29.55,NNE,22,0.0,0.0,83,0.00,CLR,SCT,0.00,WeatherDisplay:10.37,2013-03-06 01:40:00,
2013-03-06 01:45:00,39.8,35.4,29.55,NNE,22,0.0,0.0,84,0.00,CLR,SCT,0.00,WeatherDisplay:10.37,2013-03-06 01:45:00,
2013-03-06 01:50:00,39.7,35.3,29.55,NNE,22,0.0,0.0,84,0.00,CLR,SCT,0.00,WeatherDisplay:10.37,2013-03-06 01:50:00,
2013-03-06 01:55:00,39.5,35.1,29.54,NNE,22,0.0,0.0,84,0.00,CLR,SCT,0.00,WeatherDisplay:10.37,2013-03-06 01:55:00,
2013-03-06 02:00:00,39.4,34.9,29.54,NNE,22,0.0,0.0,84,0.00,CLR,SCT,0.00,WeatherDisplay:10.37,2013-03-06 02:00:00,
2013-03-06 02:10:00,39.2,35.1,29.54,NNE,22,0.0,0.0,85,0.00,CLR,SCT,0.00,WeatherDisplay:10.37,2013-03-06 02:10:00,
2013-03-06 02:15:00,39.2,35.1,29.54,NNE,22,0.0,0.0,85,0.00,CLR,SCT,0.00,WeatherDisplay:10.37,2013-03-06 02:15:00,
2013-03-06 02:20:00,39.2,35.0,29.54,NNE,22,0.0,0.0,85,0.00,CLR,SCT,0.00,WeatherDisplay:10.37,2013-03-06 02:20:00,
2013-03-06 02:30:00,39.4,35.2,29.54,NNE,22,0.0,0.0,85,0.00,CLR,SCT,0.00,WeatherDisplay:10.37,2013-03-06 02:30:00,
2013-03-06 02:40:00,39.6,35.4,29.54,NNE,22,0.0,0.0,85,0.00,CLR,SCT,0.00,WeatherDisplay:10.37,2013-03-06 02:40:00,
2013-03-06 02:50:00,39.6,35.4,29.54,NNE,22,0.0,0.0,85,0.00,CLR,SCT,0.00,WeatherDisplay:10.37,2013-03-06 02:50:00,
2013-03-06 03:00:00,39.7,35.6,29.54,NNE,22,0.0,0.0,85,0.00,CLR,SCT,0.00,WeatherDisplay:10.37,2013-03-06 03:00:00,
2013-03-06 03:05:00,39.9,35.8,29.53,NNE,22,0.0,0.0,85,0.00,CLR,SCT,0.00,WeatherDisplay:10.37,2013-03-06 03:05:00,
2013-03-06 03:15:00,40.1,36.0,29.53,NNE,22,0.0,0.0,85,0.00,CLR,SCT,0.00,WeatherDisplay:10.37,2013-03-06 03:15:00,
2013-03-06 03:20:00,40.3,36.1,29.53,NNE,22,0.0,0.0,85,0.00,CLR,SCT,0.00,WeatherDisplay:10.37,2013-03-06 03:20:00,
2013-03-06 03:25:00,40.3,36.4,29.54,NNE,22,0.0,0.0,86,0.00,CLR,SCT,0.00,WeatherDisplay:10.37,2013-03-06 03:25:00,
2013-03-06 03:30:00,40.6,36.8,29.54,NNE,22,0.0,0.0,86,0.00,CLR,SCT,0.00,WeatherDisplay:10.37,2013-03-06 03:30:00,
2013-03-06 03:40:00,40.8,37.0,29.53,NNE,22,0.0,0.0,86,0.00,CLR,SCT,0.00,WeatherDisplay:10.37,2013-03-06 03:40:00,
2013-03-06 03:45:00,40.7,36.9,29.53,NNE,22,0.0,0.0,86,0.00,CLR,SCT,0.00,WeatherDisplay:10.37,2013-03-06 03:45:00,
2013-03-06 03:50:00,40.8,37.0,29.53,NNE,22,0.0,0.0,86,0.00,CLR,SCT,0.00,WeatherDisplay:10.37,2013-03-06 03:50:00,
2013-03-06 03:55:00,40.8,37.0,29.53,NNE,22,0.0,0.0,86,0.00,CLR,SCT,0.00,WeatherDisplay:10.37,2013-03-06 03:55:00,
2013-03-06 04:05:00,40.8,37.0,29.53,NNE,22,0.0,0.0,86,0.00,CLR,SCT,0.00,WeatherDisplay:10.37,2013-03-06 04:05:00,
2013-03-06 04:15:00,40.8,37.0,29.54,NNE,22,0.0,0.0,86,0.00,CLR,SCT,0.00,WeatherDisplay:10.37,2013-03-06 04:15:00,
2013-03-06 04:25:00,41.3,37.4,29.53,NNE,22,0.0,0.0,86,0.00,CLR,SCT,0.00,WeatherDisplay:10.37,2013-03-06 04:25:00,
2013-03-06 04:30:00,41.5,37.7,29.53,NNE,22,0.0,0.0,86,0.00,CLR,SCT,0.00,WeatherDisplay:10.37,2013-03-06 04:30:00,
2013-03-06 04:40:00,41.5,37.7,29.53,NNE,22,0.0,0.0,86,0.00,CLR,SCT,0.00,WeatherDisplay:10.37,2013-03-06 04:40:00,
2013-03-06 04:50:00,42.1,38.2,29.53,NNE,22,0.0,0.0,86,0.00,CLR,SCT,0.00,WeatherDisplay:10.37,2013-03-06 04:50:00,
2013-03-06 04:55:00,42.1,38.2,29.53,NNE,22,0.0,0.0,86,0.00,CLR,SCT,0.00,WeatherDisplay:10.37,2013-03-06 04:55:00,
2013-03-06 05:00:00,42.1,38.2,29.52,NNE,22,0.0,0.0,86,0.00,CLR,SCT,0.00,WeatherDisplay:10.37,2013-03-06 05:00:00,
2013-03-06 05:05:00,42.1,38.2,29.52,NNE,22,0.0,0.0,86,0.00,CLR,SCT,0.00,WeatherDisplay:10.37,2013-03-06 05:05:00,
2013-03-06 05:10:00,42.4,38.5,29.53,NNE,22,0.0,0.0,86,0.00,CLR,SCT,0.00,WeatherDisplay:10.37,2013-03-06 05:10:00,
2013-03-06 05:15:00,42.4,38.5,29.52,NNE,22,0.0,0.0,86,0.00,CLR,SCT,0.00,WeatherDisplay:10.37,2013-03-06 05:15:00,
2013-03-06 05:25:00,42.6,38.7,29.52,NNE,22,0.0,0.0,86,0.00,CLR,SCT,0.00,WeatherDisplay:10.37,2013-03-06 05:25:00,
2013-03-06 05:30:00,42.6,38.7,29.53,NNE,22,0.0,0.0,86,0.00,CLR,SCT,0.00,WeatherDisplay:10.37,2013-03-06 05:30:00,
2013-03-06 05:35:00,42.6,38.7,29.52,NNE,22,0.0,0.0,86,0.00,CLR,SCT,0.00,WeatherDisplay:10.37,2013-03-06 05:35:00,
2013-03-06 05:40:00,42.6,38.7,29.52,NNE,22,0.0,0.0,86,0.00,CLR,SCT,0.00,WeatherDisplay:10.37,2013-03-06 05:40:00,
2013-03-06 05:50:00,42.6,38.7,29.52,NNE,22,0.0,0.0,86,0.00,CLR,SCT,0.00,WeatherDisplay:10.37,2013-03-06 05:50:00,
2013-03-06 05:55:00,42.8,38.9,29.52,NNE,22,0.0,0.0,86,0.00,CLR,SCT,0.00,WeatherDisplay:10.37,2013-03-06 05:55:00,
2013-03-06 06:00:00,43.0,39.1,29.52,NNE,22,0.0,0.0,86,0.00,CLR,SCT,0.00,WeatherDisplay:10.37,2013-03-06 06:00:00,
2013-03-06 06:10:00,43.0,39.1,29.52,NNE,22,0.0,0.0,86,0.00,CLR,SCT,0.00,WeatherDisplay:10.37,2013-03-06 06:10:00,
2013-03-06 06:15:00,43.2,39.3,29.52,NNE,22,0.0,0.0,86,0.00,CLR,SCT,0.00,WeatherDisplay:10.37,2013-03-06 06:15:00,
2013-03-06 06:25:00,43.3,39.4,29.52,ENE,66,0.0,0.0,86,0.00,CLR,SCT,0.00,WeatherDisplay:10.37,2013-03-06 06:25:00,
2013-03-06 06:35:00,43.5,39.5,29.52,ENE,59,0.0,0.0,86,0.00,CLR,SCT,0.00,WeatherDisplay:10.37,2013-03-06 06:35:00,
2013-03-06 06:40:00,43.7,39.7,29.52,NE,41,0.0,0.0,86,0.00,CLR,SCT,0.00,WeatherDisplay:10.37,2013-03-06 06:40:00,
2013-03-06 06:50:00,43.9,40.0,29.53,ESE,114,0.0,0.0,86,0.00,CLR,SCT,0.00,WeatherDisplay:10.37,2013-03-06 06:50:00,
2013-03-06 06:55:00,43.9,40.0,29.53,East,93,0.0,0.0,86,0.00,CLR,SCT,0.00,WeatherDisplay:10.37,2013-03-06 06:55:00,
2013-03-06 07:00:00,44.1,40.1,29.53,NNE,32,0.0,0.0,86,0.00,CLR,SCT,0.00,WeatherDisplay:10.37,2013-03-06 07:00:00,
2013-03-06 07:10:00,44.2,40.0,29.53,North,0,0.0,0.0,85,0.00,CLR,SCT,0.00,WeatherDisplay:10.37,2013-03-06 07:10:00,
2013-03-06 07:15:00,44.2,40.0,29.53,NE,49,0.0,0.0,85,0.00,CLR,SCT,0.00,WeatherDisplay:10.37,2013-03-06 07:15:00,
2013-03-06 07:20:00,44.4,40.2,29.54,East,87,0.0,0.0,85,0.00,CLR,SCT,0.00,WeatherDisplay:10.37,2013-03-06 07:20:00,
2013-03-06 07:25:00,44.4,40.2,29.54,East,89,0.0,0.0,85,0.00,CLR,SCT,0.00,WeatherDisplay:10.37,2013-03-06 07:25:00,
2013-03-06 07:30:00,44.4,40.2,29.53,East,90,0.0,0.0,85,0.00,CLR,SCT,0.00,WeatherDisplay:10.37,2013-03-06 07:30:00,
2013-03-06 07:35:00,44.4,40.2,29.54,East,80,0.0,0.0,85,0.00,CLR,SCT,0.00,WeatherDisplay:10.37,2013-03-06 07:35:00,
2013-03-06 07:40:00,44.6,40.4,29.54,ENE,66,0.0,0.0,85,0.00,CLR,SCT,0.00,WeatherDisplay:10.37,2013-03-06 07:40:00,
2013-03-06 07:45:00,44.7,40.5,29.54,ENE,58,0.0,0.0,85,0.00,CLR,SCT,0.00,WeatherDisplay:10.37,2013-03-06 07:45:00,
2013-03-06 07:50:00,44.8,40.5,29.54,NE,48,0.0,0.0,85,0.00,CLR,SCT,0.00,WeatherDisplay:10.37,2013-03-06 07:50:00,
2013-03-06 07:55:00,45.0,40.7,29.54,NE,44,0.0,0.0,85,0.00,CLR,SCT,0.00,WeatherDisplay:10.37,2013-03-06 07:55:00,
2013-03-06 08:05:00,45.0,40.8,29.54,NNE,22,0.0,0.0,85,0.00,CLR,SCT,0.00,WeatherDisplay:10.37,2013-03-06 08:05:00,
2013-03-06 08:15:00,45.3,41.1,29.54,NE,56,0.0,0.0,85,0.00,CLR,SCT,0.00,WeatherDisplay:10.37,2013-03-06 08:15:00,
2013-03-06 08:20:00,45.6,41.4,29.54,ENE,75,0.0,1.0,85,0.00,CLR,SCT,0.00,WeatherDisplay:10.37,2013-03-06 08:20:00,
2013-03-06 08:30:00,46.0,41.8,29.54,East,91,1.0,2.0,85,0.00,CLR,SCT,0.00,WeatherDisplay:10.37,2013-03-06 08:30:00,
2013-03-06 08:35:00,46.1,41.5,29.54,East,88,0.0,0.0,84,0.00,CLR,SCT,0.00,WeatherDisplay:10.37,2013-03-06 08:35:00,
2013-03-06 08:40:00,46.4,41.8,29.54,East,85,0.0,2.0,84,0.00,CLR,SCT,0.00,WeatherDisplay:10.37,2013-03-06 08:40:00,
2013-03-06 08:50:00,46.9,42.4,29.54,ESE,102,0.0,1.0,84,0.00,CLR,SCT,0.00,WeatherDisplay:10.37,2013-03-06 08:50:00,
2013-03-06 08:55:00,47.1,42.5,29.54,ESE,108,0.0,0.0,84,0.00,CLR,SCT,0.00,WeatherDisplay:10.37,2013-03-06 08:55:00,
2013-03-06 09:00:00,47.8,43.2,29.54,SE,130,0.0,0.0,84,0.00,CLR,SCT,0.00,WeatherDisplay:10.37,2013-03-06 09:00:00,
2013-03-06 09:05:00,48.0,43.4,29.54,SSE,151,0.0,0.0,84,0.00,CLR,SCT,0.00,WeatherDisplay:10.37,2013-03-06 09:05:00,
2013-03-06 09:15:00,49.1,44.2,29.54,SE,135,0.0,1.0,83,0.00,CLR,SCT,0.00,WeatherDisplay:10.37,2013-03-06 09:15:00,
2013-03-06 09:25:00,50.4,44.4,29.54,ESE,106,1.0,3.0,80,0.00,CLR,SCT,0.00,WeatherDisplay:10.37,2013-03-06 09:25:00,
2013-03-06 09:30:00,50.7,44.8,29.54,ESE,113,1.0,3.0,80,0.00,CLR,SCT,0.00,WeatherDisplay:10.37,2013-03-06 09:30:00,
2013-03-06 09:35:00,51.1,44.8,29.53,SE,131,1.0,2.0,79,0.00,CLR,SCT,0.00,WeatherDisplay:10.37,2013-03-06 09:35:00,
2013-03-06 09:40:00,51.3,45.0,29.53,SSW,193,1.0,1.0,79,0.00,CLR,SCT,0.00,WeatherDisplay:10.37,2013-03-06 09:40:00,
2013-03-06 09:45:00,51.6,44.9,29.53,ESE,117,1.0,1.0,78,0.00,CLR,SCT,0.00,WeatherDisplay:10.37,2013-03-06 09:45:00,
2013-03-06 09:50:00,51.7,45.0,29.54,SE,125,1.0,1.0,78,0.00,CLR,SCT,0.00,WeatherDisplay:10.37,2013-03-06 09:50:00,
2013-03-06 10:00:00,52.5,45.5,29.54,SE,135,2.0,2.0,77,0.00,CLR,SCT,0.00,WeatherDisplay:10.37,2013-03-06 10:00:00,
2013-03-06 10:05:00,52.9,45.5,29.54,SSE,149,0.0,1.0,76,0.00,CLR,SCT,0.00,WeatherDisplay:10.37,2013-03-06 10:05:00,
2013-03-06 10:10:00,53.2,45.9,29.54,ESE,114,0.0,2.0,76,0.00,CLR,SCT,0.00,WeatherDisplay:10.37,2013-03-06 10:10:00,
2013-03-06 10:20:00,53.4,45.7,29.54,ESE,118,0.0,1.0,75,0.00,CLR,SCT,0.00,WeatherDisplay:10.37,2013-03-06 10:20:00,
2013-03-06 10:25:00,53.4,45.3,29.54,ESE,107,0.0,1.0,74,0.00,CLR,SCT,0.00,WeatherDisplay:10.37,2013-03-06 10:25:00,
2013-03-06 10:35:00,53.4,45.3,29.53,East,89,1.0,3.0,74,0.00,CLR,SCT,0.00,WeatherDisplay:10.37,2013-03-06 10:35:00,
2013-03-06 10:40:00,53.4,45.3,29.53,SE,125,0.0,3.0,74,0.00,CLR,SCT,0.00,WeatherDisplay:10.37,2013-03-06 10:40:00,
2013-03-06 10:45:00,53.9,45.8,29.54,SE,126,0.0,0.0,74,0.00,CLR,SCT,0.00,WeatherDisplay:10.37,2013-03-06 10:45:00,
2013-03-06 10:55:00,54.3,45.8,29.53,East,84,0.0,2.0,73,0.00,CLR,SCT,0.00,WeatherDisplay:10.37,2013-03-06 10:55:00,
2013-03-06 11:00:00,54.4,45.9,29.53,ESE,110,0.0,0.0,73,0.00,CLR,SCT,0.00,WeatherDisplay:10.37,2013-03-06 11:00:00,
2013-03-06 11:05:00,54.9,46.0,29.53,East,96,1.0,2.0,72,0.00,CLR,SCT,0.00,WeatherDisplay:10.37,2013-03-06 11:05:00,
2013-03-06 11:15:00,55.2,46.0,29.53,ESE,123,1.0,2.0,71,0.00,CLR,SCT,0.00,WeatherDisplay:10.37,2013-03-06 11:15:00,
2013-03-06 11:25:00,55.4,45.7,29.53,ESE,108,0.0,4.0,70,0.00,CLR,SCT,0.00,WeatherDisplay:10.37,2013-03-06 11:25:00,
2013-03-06 11:30:00,55.2,45.6,29.53,ESE,115,0.0,4.0,70,0.00,CLR,SCT,0.00,WeatherDisplay:10.37,2013-03-06 11:30:00,
2013-03-06 11:35:00,55.0,45.4,29.53,ESE,112,2.0,2.0,70,0.00,CLR,SCT,0.00,WeatherDisplay:10.37,2013-03-06 11:35:00,
2013-03-06 11:45:00,55.2,45.6,29.53,ESE,112,0.0,0.0,70,0.00,CLR,SCT,0.00,WeatherDisplay:10.37,2013-03-06 11:45:00,
2013-03-06 11:55:00,55.8,46.1,29.52,East,96,1.0,2.0,70,0.00,CLR,SCT,0.00,WeatherDisplay:10.37,2013-03-06 11:55:00,
2013-03-06 12:00:00,56.3,46.6,29.52,ESE,117,3.0,5.0,70,0.00,CLR,SCT,0.00,WeatherDisplay:10.37,2013-03-06 12:00:00,
2013-03-06 12:10:00,57.0,46.6,29.52,ESE,102,0.0,2.0,68,0.00,CLR,SCT,0.00,WeatherDisplay:10.37,2013-03-06 12:10:00,
2013-03-06 12:20:00,58.3,47.4,29.52,ESE,119,0.0,4.0,67,0.00,CLR,SCT,0.00,WeatherDisplay:10.37,2013-03-06 12:20:00,
2013-03-06 12:25:00,58.5,47.1,29.52,SE,124,0.0,2.0,66,0.00,CLR,SCT,0.00,WeatherDisplay:10.37,2013-03-06 12:25:00,
2013-03-06 12:30:00,58.6,47.3,29.52,SSE,158,0.0,2.0,66,0.00,CLR,SCT,0.00,WeatherDisplay:10.37,2013-03-06 12:30:00,
2013-03-06 12:40:00,59.2,47.4,29.51,SE,135,2.0,3.0,65,0.00,CLR,SCT,0.00,WeatherDisplay:10.37,2013-03-06 12:40:00,
2013-03-06 12:50:00,59.2,47.4,29.51,SE,128,1.0,1.0,65,0.00,CLR,SCT,0.00,WeatherDisplay:10.37,2013-03-06 12:50:00,
2013-03-06 12:55:00,59.0,47.2,29.51,ESE,107,1.0,2.0,65,0.00,CLR,SCT,0.00,WeatherDisplay:10.37,2013-03-06 12:55:00,
2013-03-06 13:00:00,59.0,47.2,29.51,East,81,0.0,2.0,65,0.00,CLR,SCT,0.00,WeatherDisplay:10.37,2013-03-06 13:00:00,
2013-03-06 13:05:00,59.0,47.2,29.51,ENE,64,1.0,2.0,65,0.00,CLR,SCT,0.00,WeatherDisplay:10.37,2013-03-06 13:05:00,
2013-03-06 13:10:00,59.2,47.4,29.51,ESE,113,0.0,2.0,65,0.00,CLR,SCT,0.00,WeatherDisplay:10.37,2013-03-06 13:10:00,
2013-03-06 13:15:00,59.3,47.5,29.51,ESE,123,1.0,2.0,65,0.00,CLR,SCT,0.00,WeatherDisplay:10.37,2013-03-06 13:15:00,
2013-03-06 13:20:00,59.5,47.3,29.51,SE,128,2.0,2.0,64,0.00,CLR,SCT,0.00,WeatherDisplay:10.37,2013-03-06 13:20:00,
2013-03-06 13:25:00,59.5,47.3,29.50,SE,140,0.0,2.0,64,0.00,CLR,SCT,0.00,WeatherDisplay:10.37,2013-03-06 13:25:00,
2013-03-06 13:35:00,59.4,47.2,29.51,SE,124,0.0,0.0,64,0.00,CLR,SCT,0.00,WeatherDisplay:10.37,2013-03-06 13:35:00,
2013-03-06 13:40:00,59.4,47.2,29.51,SSE,163,0.0,2.0,64,0.00,CLR,SCT,0.00,WeatherDisplay:10.37,2013-03-06 13:40:00,
2013-03-06 13:45:00,59.4,47.2,29.51,ESE,106,0.0,2.0,64,0.00,CLR,SCT,0.00,WeatherDisplay:10.37,2013-03-06 13:45:00,
2013-03-06 13:55:00,59.7,47.5,29.51,SE,140,0.0,0.0,64,0.00,CLR,SCT,0.00,WeatherDisplay:10.37,2013-03-06 13:55:00,
2013-03-06 14:00:00,59.7,47.5,29.51,ESE,117,0.0,0.0,64,0.00,CLR,SCT,0.00,WeatherDisplay:10.37,2013-03-06 14:00:00,
2013-03-06 14:05:00,59.9,47.7,29.50,ESE,104,0.0,1.0,64,0.00,CLR,SCT,0.00,WeatherDisplay:10.37,2013-03-06 14:05:00,
2013-03-06 14:10:00,59.8,47.2,29.50,ESE,108,0.0,0.0,63,0.00,CLR,SCT,0.00,WeatherDisplay:10.37,2013-03-06 14:10:00,
2013-03-06 14:20:00,59.7,47.5,29.50,ESE,107,0.0,0.0,64,0.00,CLR,SCT,0.00,WeatherDisplay:10.37,2013-03-06 14:20:00,
2013-03-06 14:30:00,60.1,47.9,29.50,ESE,123,0.0,2.0,64,0.00,CLR,SCT,0.00,WeatherDisplay:10.37,2013-03-06 14:30:00,
2013-03-06 14:40:00,60.1,47.4,29.50,NNE,32,0.0,2.0,63,0.00,CLR,SCT,0.00,WeatherDisplay:10.37,2013-03-06 14:40:00,
2013-03-06 14:45:00,59.9,47.3,29.50,ENE,61,1.0,4.0,63,0.00,CLR,SCT,0.00,WeatherDisplay:10.37,2013-03-06 14:45:00,
2013-03-06 14:55:00,59.5,46.9,29.50,South,172,0.0,2.0,63,0.00,CLR,SCT,0.00,WeatherDisplay:10.37,2013-03-06 14:55:00,
2013-03-06 15:00:00,59.4,46.8,29.50,ESE,112,0.0,0.0,63,0.00,CLR,SCT,0.00,WeatherDisplay:10.37,2013-03-06 15:00:00,
2013-03-06 15:05:00,59.2,46.6,29.50,SSE,147,0.0,2.0,63,0.00,CLR,SCT,0.00,WeatherDisplay:10.37,2013-03-06 15:05:00,
2013-03-06 15:10:00,59.2,47.0,29.50,South,171,0.0,2.0,64,0.00,CLR,SCT,0.00,WeatherDisplay:10.37,2013-03-06 15:10:00,
2013-03-06 15:15:00,59.0,46.8,29.50,East,98,0.0,2.0,64,0.00,CLR,SCT,0.00,WeatherDisplay:10.37,2013-03-06 15:15:00,
2013-03-06 15:20:00,59.0,46.8,29.50,ESE,106,0.0,0.0,64,0.00,CLR,SCT,0.00,WeatherDisplay:10.37,2013-03-06 15:20:00,
2013-03-06 15:25:00,59.0,46.8,29.50,SE,126,0.0,0.0,64,0.00,CLR,SCT,0.00,WeatherDisplay:10.37,2013-03-06 15:25:00,
2013-03-06 15:30:00,58.8,46.7,29.50,ESE,119,0.0,0.0,64,0.00,CLR,SCT,0.00,WeatherDisplay:10.37,2013-03-06 15:30:00,
2013-03-06 15:40:00,58.8,46.7,29.49,East,83,0.0,2.0,64,0.00,CLR,SCT,0.00,WeatherDisplay:10.37,2013-03-06 15:40:00,
2013-03-06 15:45:00,58.8,46.7,29.49,NE,42,1.0,2.0,64,0.00,CLR,SCT,0.00,WeatherDisplay:10.37,2013-03-06 15:45:00,
2013-03-06 15:55:00,58.6,46.5,29.49,East,97,0.0,0.0,64,0.00,CLR,SCT,0.00,WeatherDisplay:10.37,2013-03-06 15:55:00,
2013-03-06 16:05:00,58.3,46.2,29.49,ESE,104,0.0,0.0,64,0.00,CLR,SCT,0.00,WeatherDisplay:10.37,2013-03-06 16:05:00,
2013-03-06 16:10:00,57.9,46.2,29.49,ESE,107,2.0,2.0,65,0.00,CLR,SCT,0.00,WeatherDisplay:10.37,2013-03-06 16:10:00,
2013-03-06 16:15:00,57.7,46.0,29.49,ESE,109,2.0,2.0,65,0.00,CLR,SCT,0.00,WeatherDisplay:10.37,2013-03-06 16:15:00,
2013-03-06 16:20:00,57.4,45.7,29.49,ESE,114,0.0,1.0,65,0.00,CLR,SCT,0.00,WeatherDisplay:10.37,2013-03-06 16:20:00,
2013-03-06 16:30:00,56.8,45.6,29.49,East,95,0.0,1.0,66,0.00,CLR,SCT,0.00,WeatherDisplay:10.37,2013-03-06 16:30:00,
2013-03-06 16:35:00,56.8,45.6,29.48,ESE,108,1.0,1.0,66,0.00,CLR,SCT,0.00,WeatherDisplay:10.37,2013-03-06 16:35:00,
2013-03-06 16:45:00,56.1,45.3,29.49,ESE,110,0.0,0.0,67,0.00,CLR,SCT,0.00,WeatherDisplay:10.37,2013-03-06 16:45:00,
2013-03-06 16:55:00,55.8,45.0,29.48,SE,131,0.0,2.0,67,0.00,CLR,SCT,0.00,WeatherDisplay:10.37,2013-03-06 16:55:00,
2013-03-06 17:00:00,55.4,44.6,29.49,East,100,1.0,2.0,67,0.00,CLR,SCT,0.00,WeatherDisplay:10.37,2013-03-06 17:00:00,
2013-03-06 17:05:00,55.2,44.8,29.49,SSE,152,0.0,2.0,68,0.00,CLR,SCT,0.00,WeatherDisplay:10.37,2013-03-06 17:05:00,
2013-03-06 17:10:00,55.0,44.6,29.49,SE,130,0.0,1.0,68,0.00,CLR,SCT,0.00,WeatherDisplay:10.37,2013-03-06 17:10:00,
2013-03-06 17:15:00,54.7,44.3,29.49,East,93,1.0,1.0,68,0.00,CLR,SCT,0.00,WeatherDisplay:10.37,2013-03-06 17:15:00,
2013-03-06 17:20:00,54.3,44.0,29.49,ESE,120,0.0,0.0,68,0.00,CLR,SCT,0.00,WeatherDisplay:10.37,2013-03-06 17:20:00,
2013-03-06 17:25:00,54.2,43.9,29.49,East,98,0.0,0.0,68,0.00,CLR,SCT,0.00,WeatherDisplay:10.37,2013-03-06 17:25:00,
2013-03-06 17:30:00,54.1,44.1,29.49,East,79,0.0,0.0,69,0.00,CLR,SCT,0.00,WeatherDisplay:10.37,2013-03-06 17:30:00,
2013-03-06 17:40:00,53.8,43.8,29.49,ENE,59,1.0,2.0,69,0.00,CLR,SCT,0.00,WeatherDisplay:10.37,2013-03-06 17:40:00,
2013-03-06 17:45:00,53.4,43.9,29.49,East,99,0.0,0.0,70,0.00,CLR,SCT,0.00,WeatherDisplay:10.37,2013-03-06 17:45:00,
2013-03-06 17:55:00,53.2,43.7,29.50,ESE,108,1.0,1.0,70,0.00,CLR,SCT,0.00,WeatherDisplay:10.37,2013-03-06 17:55:00,
2013-03-06 18:00:00,53.2,44.1,29.50,ESE,119,1.0,1.0,71,0.00,CLR,SCT,0.00,WeatherDisplay:10.37,2013-03-06 18:00:00,
2013-03-06 18:05:00,52.9,43.7,29.50,ESE,118,0.0,1.0,71,0.00,CLR,SCT,0.00,WeatherDisplay:10.37,2013-03-06 18:05:00,
2013-03-06 18:10:00,52.9,43.7,29.50,East,100,2.0,3.0,71,0.00,CLR,SCT,0.00,WeatherDisplay:10.37,2013-03-06 18:10:00,
2013-03-06 18:20:00,52.7,43.6,29.50,SE,139,1.0,2.0,71,0.00,CLR,SCT,0.00,WeatherDisplay:10.37,2013-03-06 18:20:00,
2013-03-06 18:25:00,52.5,43.4,29.51,SE,139,2.0,2.0,71,0.00,CLR,SCT,0.00,WeatherDisplay:10.37,2013-03-06 18:25:00,
2013-03-06 18:30:00,52.5,43.4,29.51,ESE,122,0.0,2.0,71,0.00,CLR,SCT,0.00,WeatherDisplay:10.37,2013-03-06 18:30:00,
2013-03-06 18:40:00,52.3,43.1,29.51,ESE,108,2.0,3.0,71,0.00,CLR,SCT,0.00,WeatherDisplay:10.37,2013-03-06 18:40:00,
2013-03-06 18:45:00,52.2,43.0,29.51,ESE,113,1.0,2.0,71,0.00,CLR,SCT,0.00,WeatherDisplay:10.37,2013-03-06 18:45:00,
2013-03-06 18:55:00,52.0,42.9,29.51,ESE,117,2.0,4.0,71,0.00,CLR,SCT,0.00,WeatherDisplay:10.37,2013-03-06 18:55:00,
2013-03-06 19:00:00,51.8,43.1,29.51,ESE,106,1.0,4.0,72,0.00,CLR,SCT,0.00,WeatherDisplay:10.37,2013-03-06 19:00:00,
2013-03-06 19:10:00,51.5,42.8,29.51,ESE,115,3.0,3.0,72,0.00,CLR,SCT,0.00,WeatherDisplay:10.37,2013-03-06 19:10:00,
2013-03-06 19:15:00,51.4,43.1,29.51,SE,125,1.0,1.0,73,0.00,CLR,SCT,0.00,WeatherDisplay:10.37,2013-03-06 19:15:00,
2013-03-06 19:20:00,51.1,43.1,29.51,ESE,112,0.0,1.0,74,0.00,CLR,SCT,0.00,WeatherDisplay:10.37,2013-03-06 19:20:00,
2013-03-06 19:25:00,50.9,42.9,29.51,SSE,148,1.0,3.0,74,0.00,CLR,SCT,0.00,WeatherDisplay:10.37,2013-03-06 19:25:00,
2013-03-06 19:30:00,50.6,42.9,29.51,SE,140,1.0,2.0,75,0.00,CLR,SCT,0.00,WeatherDisplay:10.37,2013-03-06 19:30:00,
2013-03-06 19:35:00,50.4,43.1,29.51,ESE,116,0.0,0.0,76,0.00,CLR,SCT,0.00,WeatherDisplay:10.37,2013-03-06 19:35:00,
2013-03-06 19:40:00,50.2,42.9,29.51,SE,136,1.0,2.0,76,0.00,CLR,SCT,0.00,WeatherDisplay:10.37,2013-03-06 19:40:00,
2013-03-06 19:45:00,49.9,42.9,29.52,SSE,149,1.0,2.0,77,0.00,CLR,SCT,0.00,WeatherDisplay:10.37,2013-03-06 19:45:00,
2013-03-06 19:50:00,49.8,42.9,29.51,SE,125,2.0,2.0,77,0.00,CLR,SCT,0.00,WeatherDisplay:10.37,2013-03-06 19:50:00,
2013-03-06 20:01:00,49.6,43.1,29.52,ESE,121,0.0,0.0,78,0.00,CLR,SCT,0.00,WeatherDisplay:10.37,2013-03-06 20:01:00,
2013-03-06 20:10:00,49.4,42.8,29.51,ESE,103,0.0,2.0,78,0.00,CLR,SCT,0.00,WeatherDisplay:10.37,2013-03-06 20:10:00,
2013-03-06 20:15:00,49.2,43.0,29.51,East,97,0.0,2.0,79,0.00,CLR,SCT,0.00,WeatherDisplay:10.37,2013-03-06 20:15:00,
2013-03-06 20:25:00,48.9,42.7,29.51,SE,143,0.0,0.0,79,0.00,CLR,SCT,0.00,WeatherDisplay:10.37,2013-03-06 20:25:00,
2013-03-06 20:35:00,48.7,42.5,29.52,SE,135,0.0,0.0,79,0.00,CLR,SCT,0.00,WeatherDisplay:10.37,2013-03-06 20:35:00,
2013-03-06 20:40:00,48.7,42.5,29.52,SE,129,0.0,0.0,79,0.00,CLR,SCT,0.00,WeatherDisplay:10.37,2013-03-06 20:40:00,
2013-03-06 20:50:00,48.4,42.5,29.51,ESE,115,0.0,0.0,80,0.00,CLR,SCT,0.00,WeatherDisplay:10.37,2013-03-06 20:50:00,
2013-03-06 20:55:00,48.4,42.5,29.51,ESE,112,0.0,0.0,80,0.00,CLR,SCT,0.00,WeatherDisplay:10.37,2013-03-06 20:55:00,
2013-03-06 21:00:00,48.4,42.5,29.51,ESE,102,0.0,0.0,80,0.00,CLR,SCT,0.00,WeatherDisplay:10.37,2013-03-06 21:00:00,
2013-03-06 21:05:00,48.2,42.3,29.51,East,91,0.0,0.0,80,0.00,CLR,SCT,0.00,WeatherDisplay:10.37,2013-03-06 21:05:00,
2013-03-06 21:15:00,48.0,42.1,29.51,ESE,120,0.0,0.0,80,0.00,CLR,SCT,0.00,WeatherDisplay:10.37,2013-03-06 21:15:00,
2013-03-06 21:20:00,48.0,42.1,29.51,SE,132,0.0,0.0,80,0.00,CLR,SCT,0.00,WeatherDisplay:10.37,2013-03-06 21:20:00,
2013-03-06 21:25:00,47.8,42.3,29.51,ESE,118,0.0,0.0,81,0.00,CLR,SCT,0.00,WeatherDisplay:10.37,2013-03-06 21:25:00,
2013-03-06 21:30:00,47.8,42.3,29.51,ESE,109,0.0,0.0,81,0.00,CLR,SCT,0.00,WeatherDisplay:10.37,2013-03-06 21:30:00,
2013-03-06 21:35:00,47.7,42.1,29.51,ESE,112,0.0,0.0,81,0.00,CLR,SCT,0.00,WeatherDisplay:10.37,2013-03-06 21:35:00,
2013-03-06 21:40:00,47.6,42.1,29.51,ESE,108,0.0,2.0,81,0.00,CLR,SCT,0.00,WeatherDisplay:10.37,2013-03-06 21:40:00,
2013-03-06 21:45:00,47.5,41.9,29.51,ESE,114,0.0,0.0,81,0.00,CLR,SCT,0.00,WeatherDisplay:10.37,2013-03-06 21:45:00,
2013-03-06 21:55:00,47.5,42.3,29.51,ESE,112,0.0,0.0,82,0.00,CLR,SCT,0.00,WeatherDisplay:10.37,2013-03-06 21:55:00,
2013-03-06 22:00:00,47.3,42.1,29.52,East,97,0.0,0.0,82,0.00,CLR,SCT,0.00,WeatherDisplay:10.37,2013-03-06 22:00:00,
2013-03-06 22:05:00,47.3,42.1,29.51,ENE,68,0.0,0.0,82,0.00,CLR,SCT,0.00,WeatherDisplay:10.37,2013-03-06 22:05:00,
2013-03-06 22:10:00,47.3,42.1,29.51,ENE,64,0.0,0.0,82,0.00,CLR,SCT,0.00,WeatherDisplay:10.37,2013-03-06 22:10:00,
2013-03-06 22:15:00,47.3,42.1,29.51,ENE,68,0.0,0.0,82,0.00,CLR,SCT,0.00,WeatherDisplay:10.37,2013-03-06 22:15:00,
2013-03-06 22:20:00,47.1,41.9,29.52,ENE,78,0.0,0.0,82,0.00,CLR,SCT,0.00,WeatherDisplay:10.37,2013-03-06 22:20:00,
2013-03-06 22:25:00,47.1,41.9,29.51,East,82,0.0,0.0,82,0.00,CLR,SCT,0.00,WeatherDisplay:10.37,2013-03-06 22:25:00,
2013-03-06 22:30:00,47.1,41.9,29.51,ENE,72,0.0,0.0,82,0.00,CLR,SCT,0.00,WeatherDisplay:10.37,2013-03-06 22:30:00,
2013-03-06 22:35:00,46.9,42.0,29.51,ENE,64,0.0,0.0,83,0.00,CLR,SCT,0.00,WeatherDisplay:10.37,2013-03-06 22:35:00,
2013-03-06 22:40:00,46.9,42.0,29.51,NE,55,0.0,2.0,83,0.00,CLR,SCT,0.00,WeatherDisplay:10.37,2013-03-06 22:40:00,
2013-03-06 22:45:00,46.8,41.9,29.51,ENE,57,0.0,0.0,83,0.00,CLR,SCT,0.00,WeatherDisplay:10.37,2013-03-06 22:45:00,
2013-03-06 22:55:00,46.6,41.7,29.51,NE,45,1.0,1.0,83,0.00,CLR,SCT,0.00,WeatherDisplay:10.37,2013-03-06 22:55:00,
2013-03-06 23:00:00,46.6,41.7,29.51,NE,45,0.0,0.0,83,0.00,CLR,SCT,0.00,WeatherDisplay:10.37,2013-03-06 23:00:00,
2013-03-06 23:10:00,46.6,42.0,29.51,ENE,64,0.0,0.0,84,0.00,CLR,SCT,0.00,WeatherDisplay:10.37,2013-03-06 23:10:00,
2013-03-06 23:15:00,46.6,42.0,29.51,ENE,66,0.0,0.0,84,0.00,CLR,SCT,0.00,WeatherDisplay:10.37,2013-03-06 23:15:00,
2013-03-06 23:20:00,46.6,42.0,29.51,ENE,68,0.0,0.0,84,0.00,CLR,SCT,0.00,WeatherDisplay:10.37,2013-03-06 23:20:00,
2013-03-06 23:25:00,46.4,41.8,29.51,East,81,0.0,0.0,84,0.00,CLR,SCT,0.00,WeatherDisplay:10.37,2013-03-06 23:25:00,
2013-03-06 23:30:00,46.2,41.7,29.51,East,90,0.0,0.0,84,0.00,CLR,SCT,0.00,WeatherDisplay:10.37,2013-03-06 23:30:00,
2013-03-06 23:35:00,46.2,41.7,29.50,East,84,0.0,0.0,84,0.00,CLR,SCT,0.00,WeatherDisplay:10.37,2013-03-06 23:35:00,
2013-03-06 23:40:00,46.2,41.7,29.50,ENE,77,0.0,0.0,84,0.00,CLR,SCT,0.00,WeatherDisplay:10.37,2013-03-06 23:40:00,
2013-03-06 23:45:00,46.2,41.7,29.51,East,92,0.0,0.0,84,0.00,CLR,SCT,0.00,WeatherDisplay:10.37,2013-03-06 23:45:00,
2013-03-06 23:55:00,46.1,41.9,29.50,East,83,0.0,0.0,85,0.00,CLR,SCT,0.00,WeatherDisplay:10.37,2013-03-06 23:55:00,